Lewisburg, WV

10:49 AM EDT on October 21, 2017 (GMT -0400)
Greenbrier Valley

Weather History for KLWB - January, 2012

Change the Weather History Date:

Friday, January 6, 2012

  Actual Average Record
Temperature  
Mean Temperature 44 °F 28 °F  
Max Temperature 59 °F 38 °F 61 °F (2007)
Min Temperature 30 °F 19 °F -5 °F (2014)
Degree Days  
Heating Degree Days 20    
Month to date heating degree days  
Since 1 July heating degree days  
Cooling Degree Days 0    
Month to date cooling degree days  
Year to date cooling degree days  
Moisture  
Dew Point 25 °F    
Average Humidity 51    
Maximum Humidity 75    
Minimum Humidity 25    
Precipitation  
Precipitation 0.00 in - 1.98 in (1985)
Snow  
Snow 0.00 in - - ()
Month to date snowfall  
Since 1 July snowfall  
Snow Depth -    
Sea Level Pressure  
Sea Level Pressure 29.98 in    
Wind  
Wind Speed 4 mph (SW)    
Max Wind Speed 12 mph    
Max Gust Speed 18 mph    
Visibility 10 miles    
Events      
T = Trace of Precipitation, MM = Missing Value Source: NWS Daily Summary

Daily Weather History Graph

Daily Weather History Graph

Search for Another Location

Airport or City:

Trip Planner

Search our weather history database for the weather conditions in past years. The results will help you decide how hot, cold, wet, or windy it might be!

Date:

Astronomy

Jan. 06, 2012 Rise Set
Actual Time 7:37 AM EST 5:17 PM EST
Civil Twilight 7:08 AM EST 5:46 PM EST
Nautical Twilight 6:35 AM EST 6:19 PM EST
Astronomical Twilight 6:03 AM EST 6:50 PM EST
Moon 3:06 PM EST (1/6) 5:15 AM EST (1/6)
Length of Visible Light 10h 37m
Length of Day
9h 39m
Waxing Gibbous, 93% of the Moon is Illuminated
Jan 6
Waxing Gibbous
Jan 9
Full
Jan 16
Last Quarter
Jan 23
New
Jan 30
First Quarter

Hourly Weather History & Observations

Time (EST) Temp. Windchill Dew Point Humidity Pressure Visibility Wind Dir Wind Speed Gust Speed Precip Events Conditions
12:15 AM 32.0 °F 28.7 °F 21.2 °F 64% 30.00 in 10.0 mi South 3.5 mph - N/A   Clear
12:35 AM 33.8 °F 30.8 °F 21.2 °F 60% 29.99 in 10.0 mi South 3.5 mph - N/A   Clear
12:55 AM 32.0 °F 28.7 °F 21.2 °F 64% 29.99 in 10.0 mi South 3.5 mph - N/A   Clear
1:15 AM 35.6 °F 31.7 °F 23.0 °F 60% 29.99 in 10.0 mi South 4.6 mph - N/A   Clear
1:35 AM 32.0 °F - 23.0 °F 69% 29.99 in 10.0 mi Calm Calm - N/A   Clear
1:55 AM 32.0 °F 28.7 °F 23.0 °F 69% 30.00 in 10.0 mi South 3.5 mph - N/A   Clear
2:15 AM 35.6 °F 31.7 °F 23.0 °F 60% 30.00 in 10.0 mi South 4.6 mph - N/A   Clear
2:35 AM 35.6 °F 32.8 °F 23.0 °F 60% 30.00 in 10.0 mi South 3.5 mph - N/A   Clear
3:15 AM 33.8 °F 30.8 °F 23.0 °F 65% 30.00 in 10.0 mi SSE 3.5 mph - N/A   Clear
3:35 AM 32.0 °F - 23.0 °F 69% 30.00 in 10.0 mi Calm Calm - N/A   Clear
3:55 AM 32.0 °F 28.7 °F 23.0 °F 69% 30.00 in 10.0 mi ESE 3.5 mph - N/A   Clear
4:15 AM 32.0 °F - 23.0 °F 69% 30.00 in 10.0 mi Calm Calm - N/A   Clear
4:35 AM 32.0 °F - 23.0 °F 69% 30.00 in 10.0 mi Calm Calm - N/A   Clear
4:55 AM 32.0 °F 28.7 °F 23.0 °F 69% 30.00 in 10.0 mi SSE 3.5 mph - N/A   Clear
5:15 AM 32.0 °F - 23.0 °F 69% 30.00 in 10.0 mi Calm Calm - N/A   Clear
5:35 AM 32.0 °F - 23.0 °F 69% 30.01 in 10.0 mi Calm Calm - N/A   Clear
5:55 AM 30.2 °F - 23.0 °F 75% 30.01 in 10.0 mi Calm Calm - N/A   Clear
6:15 AM 32.0 °F - 23.0 °F 69% 30.01 in 10.0 mi Calm Calm - N/A   Clear
6:35 AM 33.8 °F 30.8 °F 24.8 °F 70% 30.02 in 10.0 mi SSE 3.5 mph - N/A   Clear
6:55 AM 33.8 °F - 24.8 °F 70% 30.02 in 10.0 mi Calm Calm - N/A   Clear
7:15 AM 35.6 °F - 24.8 °F 65% 30.01 in 10.0 mi Calm Calm - N/A   Clear
7:35 AM 32.0 °F - 23.0 °F 69% 30.02 in 10.0 mi Calm Calm - N/A   Clear
7:55 AM 32.0 °F - 23.0 °F 69% 30.02 in 10.0 mi Calm Calm - N/A   Clear
8:15 AM 32.0 °F 28.7 °F 24.8 °F 75% 30.02 in 10.0 mi South 3.5 mph - N/A   Clear
8:35 AM 35.6 °F 32.8 °F 26.6 °F 70% 30.03 in 10.0 mi South 3.5 mph - N/A   Clear
8:55 AM 37.4 °F 34.9 °F 26.6 °F 65% 30.03 in 10.0 mi South 3.5 mph - N/A   Clear
9:15 AM 41.0 °F 38.0 °F 28.4 °F 61% 30.03 in 10.0 mi South 4.6 mph - N/A   Clear
9:35 AM 42.8 °F 41.1 °F 28.4 °F 57% 30.03 in 10.0 mi SSW 3.5 mph - N/A   Clear
9:55 AM 46.4 °F 42.9 °F 26.6 °F 46% 30.03 in 10.0 mi WSW 6.9 mph - N/A   Clear
10:15 AM 46.4 °F 45.2 °F 26.6 °F 46% 30.03 in 10.0 mi WSW 3.5 mph - N/A   Clear
10:35 AM 48.2 °F - 26.6 °F 43% 30.02 in 10.0 mi SW 4.6 mph - N/A   Clear
10:55 AM 48.2 °F - 26.6 °F 43% 30.01 in 10.0 mi WSW 4.6 mph - N/A   Clear
11:15 AM 50.0 °F - 26.6 °F 40% 30.00 in 10.0 mi WSW 9.2 mph - N/A   Clear
11:35 AM 51.8 °F - 26.6 °F 38% 29.99 in 10.0 mi SW 11.5 mph - N/A   Clear
11:55 AM 51.8 °F - 26.6 °F 38% 29.98 in 10.0 mi WSW 10.4 mph - N/A   Clear
12:15 PM 53.6 °F - 26.6 °F 35% 29.97 in 10.0 mi WSW 10.4 mph 17.3 mph N/A   Clear
12:35 PM 53.6 °F - 26.6 °F 35% 29.96 in 10.0 mi WSW 8.1 mph 17.3 mph N/A   Clear
12:55 PM 55.4 °F - 26.6 °F 33% 29.96 in 10.0 mi WSW 10.4 mph 18.4 mph N/A   Clear
1:15 PM 55.4 °F - 26.6 °F 33% 29.95 in 10.0 mi West 8.1 mph - N/A   Clear
1:35 PM 55.4 °F - 26.6 °F 33% 29.94 in 10.0 mi West 9.2 mph - N/A   Clear
1:55 PM 57.2 °F - 26.6 °F 31% 29.94 in 10.0 mi WSW 5.8 mph - N/A   Clear
2:15 PM 59.0 °F - 26.6 °F 29% 29.94 in 10.0 mi SW 10.4 mph - N/A   Clear
2:35 PM 59.0 °F - 26.6 °F 29% 29.93 in 10.0 mi WSW 10.4 mph - N/A   Clear
2:55 PM 59.0 °F - 26.6 °F 29% 29.93 in 10.0 mi SW 8.1 mph - N/A   Clear
3:15 PM 59.0 °F - 24.8 °F 27% 29.93 in 10.0 mi WSW 6.9 mph - N/A   Clear
3:35 PM 59.0 °F - 23.0 °F 25% 29.93 in 10.0 mi West 8.1 mph - N/A   Clear
3:55 PM 59.0 °F - 24.8 °F 27% 29.93 in 10.0 mi West 5.8 mph - N/A   Clear
4:15 PM 59.0 °F - 23.0 °F 25% 29.93 in 10.0 mi WSW 5.8 mph - N/A   Clear
4:35 PM 59.0 °F - 23.0 °F 25% 29.93 in 10.0 mi West 3.5 mph - N/A   Clear
5:15 PM 53.6 °F - 23.0 °F 30% 29.93 in 10.0 mi WSW 4.6 mph - N/A   Clear
5:55 PM 50.0 °F - 24.8 °F 37% 29.93 in 10.0 mi SW 3.5 mph - N/A   Clear
6:15 PM 50.0 °F - 23.0 °F 35% 29.94 in 10.0 mi WSW 3.5 mph - N/A   Clear
6:35 PM 48.2 °F - 23.0 °F 37% 29.94 in 10.0 mi SW 4.6 mph - N/A   Clear
6:55 PM 48.2 °F - 24.8 °F 40% 29.94 in 10.0 mi SSW 4.6 mph - N/A   Clear
7:15 PM 48.2 °F - 23.0 °F 37% 29.94 in 10.0 mi SW 5.8 mph - N/A   Clear
7:35 PM 48.2 °F - 23.0 °F 37% 29.94 in 10.0 mi SW 4.6 mph - N/A   Clear
7:55 PM 48.2 °F - 23.0 °F 37% 29.94 in 10.0 mi SW 4.6 mph - N/A   Clear
8:15 PM 48.2 °F - 23.0 °F 37% 29.93 in 10.0 mi SW 5.8 mph - N/A   Clear
8:35 PM 48.2 °F - 21.2 °F 34% 29.94 in 10.0 mi Calm Calm - N/A   Clear
8:55 PM 46.4 °F - 21.2 °F 37% 29.94 in 10.0 mi Calm Calm - N/A   Clear
9:15 PM 42.8 °F - 23.0 °F 46% 29.94 in 10.0 mi Calm Calm - N/A   Clear
9:35 PM 46.4 °F 45.2 °F 23.0 °F 40% 29.94 in 10.0 mi South 3.5 mph - N/A   Clear
9:55 PM 44.6 °F - 23.0 °F 43% 29.94 in 10.0 mi Calm Calm - N/A   Clear
10:15 PM 42.8 °F - 23.0 °F 46% 29.95 in 10.0 mi Calm Calm - N/A   Clear
10:35 PM 41.0 °F - 23.0 °F 49% 29.95 in 10.0 mi Calm Calm - N/A   Clear
10:55 PM 41.0 °F - 23.0 °F 49% 29.95 in 10.0 mi Calm Calm - N/A   Clear
11:15 PM 35.6 °F - 23.0 °F 60% 29.95 in 10.0 mi Calm Calm - N/A   Clear
11:35 PM 35.6 °F - 23.0 °F 60% 29.95 in 10.0 mi Calm Calm - N/A   Clear
11:55 PM 35.6 °F - 23.0 °F 60% 29.95 in 10.0 mi Calm Calm - N/A   Clear